STARLINK-5658, 55338

Orbit data source: Space-Track

STARLINK-5658, 55338 is a payload satellite owned by SpaceX/Seattle (US) in LEO that was launched on Thu, 26 Jan 2023 UTC via an FALCON 9 launch vehicle from the Air Force Eastern Test Range (AFETR). Payload-class satellites include a variety of spacecraft equipped with specific instruments for various scientific and technological missions. These include communications satellites like Starlink; space stations such as the ISS; scientific satellites like the Hubble; Earth observation satellites from companies like Planet Labs, Umbra, and HawkEye 360; GPS; miniature CubeSats for education and research; and military/defense satellites.

Loading next visibility...
Identifier
55338, 2023-013H
Orbit
LEO
Country
Flag of USUS
Related business
Manufacturer
SpaceX/Seattle
Mission
Operational Commercial Communications
Bus & Motor
STARLINK, Unknown motor
Mass
305 kg wet, ~290 kg dry
Launch date (UTC)
2023-01-26 (3 years ago)
Launch vehicle
FALCON 9
Launch site
Air Force Eastern Test Range (AFETR)
Object type
Payload
Rocket body
Debris
Shape & HBR
Box + 1 Pan, 10.1 m
Radar Cross Section
13.562 m², Large (>1 m²)

Expand to show TLE details & history
Last TLE update: 2 days ago

TLE from 2 days ago
0 STARLINK-5658
1 55338U 23013H   26171.10800771  .00000368  00000-0  22907-4 0  9995
2 55338  43.0026  85.2906 0001392 261.3403  98.7291 15.27577480187339
Epoch: 2026-06-20T02:35Z
TLE epoch observation values (Epoch: 2026-06-20T02:35:31.866Z)
Latitude
-0°
Longitude
138.08045°
Altitude
482.977 km
Speed
7.626 km/s
True Right ascension
05h 41m 09s
True Declination
0° 00' 00"
Sunlit
Object was in daylight at epoch
Visualization orbit readout
Latitude
Unknown
Longitude
Unknown
Altitude
Unknown
Speed
Unknown
Apparent Right ascension
Unknown
Apparent Declination
Unknown
Sunlit
N/A
Visualization observer readout
Local Sidereal Time
21:40:43
Azimuth
Unknown
Elevation
Unknown
Doppler factor
Unknown
Orbital elements
Apogee altitude
485.957 km
Perigee altitude
484.046 km
Semi-major axis
6,863.138 km
Eccentricity
0.00014
Inclination
43.0026°
RAAN
85.2906°
Arg. of periapsis
261.3403°
True anomaly
98.74487°
Mean anomaly
98.7291°
Eccentric anomaly
98.73698°
Mean motion
3.81732 °/min
Orbital period
94.31 mins
BSTAR
0.000022907
Loading maneuver chart data...
Computing Atmospheric mass density...
Loading historical data...
Loading historical data...
Loading historical data...
Loading historical data...
Loading historical data...
Loading historical data...
Loading historical data...

Documentation

Showing up to 5 results
|